Regional Weather Roundup
Issued by NWS

Home | Current Version | Previous Version | Graphics & Text | Print | Product List | Glossary On
Versions: 1 2 3 4 5 6 7 8 9 10 11 12 13 14 15 16 17 18 19 20 21 22 23 24 25 26 27 28 29 30 31 32 33 34 35 36 37 38 39 40 41 42 43 44 45 46 47 48 49 50
000
ASUS43 KDTX 040601
RWRMI
MICHIGAN HOURLY REGIONAL WEATHER ROUNDUP
NATIONAL WEATHER SERVICE DETROIT/PONTIAC MI
200 AM EDT FRI SEP 04 2015

NOTE: "FAIR" INDICATES FEW OR NO CLOUDS BELOW 12,000 FEET WITH NO
SIGNIFICANT WEATHER AND/OR OBSTRUCTION TO VISIBILITY.

MIZ047>049-052>055-059>063-066>070-074>076-081>083-040700-
SOUTHEAST LOWER MICHIGAN

CITY           SKY/WX    TMP DP  RH WIND       PRES   REMARKS
ADRIAN         CLOUDY    70  68  93 SE7       29.96S
6HR MIN TEMP:  70; 6HR MAX TEMP:  74; 6HR PCP:  0.15;

ALMA           CLOUDY    67  67 100 NE5       29.94R FOG
ANN ARBOR      CLOUDY    67  66  97 VRB5      29.95F
BAD AXE        DRIZZLE   67  66  95 E3        29.97S
6HR MIN TEMP:  67; 6HR MAX TEMP:  68;

CARO           CLOUDY    66  66  98 CALM      29.95R FOG
DETROIT CITY   CLOUDY    69  67  93 S8        29.96S
6HR MIN TEMP:  68; 6HR MAX TEMP:  70; 6HR PCP:  0.64;

DETROIT        TSTM      69  67  93 SE5       29.97S
6HR MIN TEMP:  68; 6HR MAX TEMP:  71; 6HR PCP:  0.21;

FLINT          CLOUDY    69  65  86 S7        29.94S
6HR MIN TEMP:  69; 6HR MAX TEMP:  72; 6HR PCP:  0.10;

GROSSE ILE     LGT RAIN  72  68  88 S13       29.97R
HILLSDALE      CLOUDY    70  70 100 CALM      29.96S
6HR MIN TEMP:  69; 6HR MAX TEMP:  82;

HOWELL         CLOUDY    67  66  96 SE7       29.95S
6HR MIN TEMP:  66; 6HR MAX TEMP:  68;


CITY           SKY/WX    TMP DP  RH WIND       PRES   REMARKS
JACKSON        CLOUDY    69  67  93 SE12      29.94F
6HR MIN TEMP:  69; 6HR MAX TEMP:  72; 6HR PCP: TRACE;

LAMBERTVILLE   LGT RAIN  69  66  90 SE3       29.98R
6HR MIN TEMP:  69; 6HR MAX TEMP:  78;

LANSING        CLOUDY    69  67  93 S9        29.93S
6HR MIN TEMP:  68; 6HR MAX TEMP:  71;

LAPEER         CLOUDY    67  66  99 CALM      29.96R
6HR MIN TEMP:  66; 6HR MAX TEMP:  67; 6HR PCP:  0.03;

MASON          CLOUDY    68  65  90 SE5       29.94S FOG
MONROE         LGT RAIN  70  68  92 CALM      29.98R
6HR MIN TEMP:  68; 6HR MAX TEMP:  71; 6HR PCP:  0.53;

MT. CLEMENS    CLOUDY    70  69  96 S6        29.94S
6HR MIN TEMP:  69; 6HR MAX TEMP:  70; 6HR PCP: TRACE;

PONTIAC        CLOUDY    68  67  96 S7        29.96R
6HR MIN TEMP:  67; 6HR MAX TEMP:  69;

PORT HOPE        N/A     70  68  93 E10       29.96R
6HR MIN TEMP:  68; 6HR MAX TEMP:  70; 6HR PCP:  0.01;

PORT HURON     CLOUDY    66  66 100 S5        29.97R FOG
TRI CITIES     CLOUDY    68  65  90 E6        29.95R
6HR MIN TEMP:  67; 6HR MAX TEMP:  69;

MIDLAND        CLOUDY    67  66  96 E5        29.94R
TROY           CLOUDY    69  68  98 S7        29.99R FOG
SAGINAW HB     CLOUDY    66  66 100 CALM      29.94S FOG
$$
MIZ043>046-050>051-056>058-064>065-071>073-077>080-040700-
SOUTHWEST LOWER MICHIGAN

CITY           SKY/WX    TMP DP  RH WIND       PRES   REMARKS
BATTLE CREEK   MOCLDY    71  68  90 NW5       29.94S
6HR MIN TEMP:  71; 6HR MAX TEMP:  83;

BENTON HARBOR  PTCLDY    68  66  93 CALM      29.95S
6HR MIN TEMP:  68; 6HR MAX TEMP:  73;

BIG RAPIDS     CLOUDY    67  66  97 E5        29.94S
6HR MIN TEMP:  67; 6HR MAX TEMP:  71;

COLDWATER      LGT RAIN  72  72  99 CALM      29.95R
6HR MIN TEMP:  71; 6HR MAX TEMP:  82;

FREMONT        CLOUDY    68  68 100 CALM      29.93S
HOLLAND        PTCLDY    68  66  93 W3        29.95R
6HR MIN TEMP:  67; 6HR MAX TEMP:  74;

GRAND RAPIDS   CLOUDY    68  67  96 W6        29.94R
6HR MIN TEMP:  68; 6HR MAX TEMP:  77;

IONIA          MOCLDY    68  68  99 CALM      29.92S
6HR MIN TEMP:  67; 6HR MAX TEMP:  73;

KALAMAZOO      MOCLDY    70  66  87 W5        29.95R
6HR MIN TEMP:  70; 6HR MAX TEMP:  82;

LUDINGTON      CLOUDY    71  69  93 CALM      29.94S FOG
6HR MIN TEMP:  68; 6HR MAX TEMP:  71;

MARSHALL       CLOUDY    71  70  97 CALM      29.94R FOG
6HR MIN TEMP:  70; 6HR MAX TEMP:  76;

MOUNT PLEASANT CLOUDY    68  66  93 CALM      29.94R FOG
6HR MIN TEMP:  68; 6HR MAX TEMP:  70; 6HR PCP:  0.02;

MUSKEGON       CLOUDY    69  65  86 CALM      29.94R
6HR MIN TEMP:  68; 6HR MAX TEMP:  71;

SOUTH HAVEN    MOCLDY    69  66  89 NW3       29.95S
$$
MIZ016>042-040700-
NORTHERN LOWER MICHIGAN

CITY           SKY/WX    TMP DP  RH WIND       PRES   REMARKS
ALPENA         CLOUDY    68  65  90 NE7       30.00R
6HR MIN TEMP:  67; 6HR MAX TEMP:  69; 6HR PCP: TRACE;

BEAVER ISLAND  PTCLDY    66  65  94 NE3       30.00S
6HR MIN TEMP:  65; 6HR MAX TEMP:  70;

BELLAIRE       MOCLDY    66  65  94 CALM      29.98R
6HR MIN TEMP:  66; 6HR MAX TEMP:  70;

CADILLAC       CLOUDY    66  65  97 E8        29.96S
CHARLEVOIX     PTCLDY    67  66  97 NE8       30.02R
6HR MIN TEMP:  67; 6HR MAX TEMP:  71;

FRANKFORT      PTCLDY    68  66  92 E3        29.95R
GAYLORD        CLOUDY    66  66 100 NE7       30.00R
6HR MIN TEMP:  66; 6HR MAX TEMP:  67; 6HR PCP:  0.02;

GRAYLING       CLOUDY    65  65  98 NE6       30.00R
6HR MIN TEMP:  65; 6HR MAX TEMP:  66;

HARBOR SPRINGS PTCLDY    66  65  95 NE6       29.99R
HOUGHTON LAKE  CLOUDY    66  64  93 E6        29.98S
6HR MIN TEMP:  66; 6HR MAX TEMP:  67; 6HR PCP:  0.17;

MANISTEE       CLOUDY    68  63  83 NE3       29.94S
OSCODA         CLOUDY    67  67  99 NE5       29.97S FOG
6HR MIN TEMP:  66; 6HR MAX TEMP:  68;

PELLSTON       PTCLDY    64  63  96 CALM      30.00R FOG
6HR MIN TEMP:  64; 6HR MAX TEMP:  71; 6HR PCP: TRACE;

ROGERS CITY    MOCLDY    67  63  87 SE7       30.01S
TRAVERSE CITY  CLOUDY    69  65  86 NE5       29.96R
6HR MIN TEMP:  69; 6HR MAX TEMP:  70; 6HR PCP:  0.01;

$$
MIZ007>008-015-040700-
EASTERN UPPER MICHIGAN

CITY           SKY/WX    TMP DP  RH WIND       PRES   REMARKS
KINROSS        MOCLDY    66  63  88 E7        30.03R
6HR MIN TEMP:  64; 6HR MAX TEMP:  73;

MACKINAC ISLAN MOCLDY    64  63  96 N6        30.01R FOG
NEWBERRY       PTCLDY    64  60  86 CALM      30.02S
6HR MIN TEMP:  63; 6HR MAX TEMP:  74;

S. S. MARIE    MOCLDY    68  59  73 NE5       30.02R
6HR MIN TEMP:  64; 6HR MAX TEMP:  75;

$$
MIZ004>006-011>014-085-040700-
CENTRAL UPPER MICHIGAN

CITY           SKY/WX    TMP DP  RH WIND       PRES   REMARKS
MANISTIQUE     CLEAR     63  60  91 N5        30.01R
6HR MIN TEMP:  62; 6HR MAX TEMP:  72;

ESCANABA       CLEAR     63  59  88 NW3       30.00R
6HR MIN TEMP:  63; 6HR MAX TEMP:  75;

MENOMINEE      CLEAR     64  59  82 N7        30.00R
6HR MIN TEMP:  63; 6HR MAX TEMP:  72;

SAWYER-GWINN   CLEAR     59  56  88 N3        30.05R
6HR MIN TEMP:  59; 6HR MAX TEMP:  67;

$$
MIZ001>003-009>011-084-040700-
WESTERN UPPER MICHIGAN

CITY           SKY/WX    TMP DP  RH WIND       PRES   REMARKS
IRON MOUNTAIN  CLEAR     62  59  90 NW3       30.03R
6HR MIN TEMP:  60; 6HR MAX TEMP:  77;

HOUGHTON       CLEAR     58  57  97 CALM      30.04R
6HR MIN TEMP:  58; 6HR MAX TEMP:  68;

COPPER HARBOR    N/A     63  57  81 NW3       30.02R
6HR MIN TEMP:  61; 6HR MAX TEMP:  67;

IRONWOOD       CLEAR     61  59  94 CALM      30.01R
6HR MIN TEMP:  59; 6HR MAX TEMP:  73;

$$

ABBREVIATIONS USED IN REMARKS
   TC - TEMPERATURE IN CELSIUS
  WCI - WIND CHILL INDEX
   HX - HEAT INDEX
  VSB - VISIBILITY




USA.gov is the U.S. government's official web portal to all federal, state and local government web resources and services.